Theta_e
279 279 280 280 279 276 276 275 274 274 274 280 282 282 281 281 282 282 282 282 283 283 284 283 283 284 283 283 284 283 283 283 280 281 279 285 279 278 282 280 281 282 281
274 276 277 278 277 273 273 273 273 273 275 281 281 281 281 281 281 281 281 281 281 282 282 283 282 283 282 283 282 282 282 283 281 280 280 282 278 278 280 278 282 283 281
272 272 273 274 274 273 273 273 274 274 275 281 281 281 281 281 280 281 281 281 282 282 283 282 281 281 280 281 281 281 281 283 282 280 280 282 277 278 278 278 280 279 282
271 270 270 271 272 273 273 273 274 273 273 276 281 281 281 281 281 281 281 281 282 282 283 282 281 280 276 276 278 280 281 280 280 279 279 278 276 278 276 277 277 278 280
268 268 268 269 270 270 270 269 271 272 272 272 273 274 281 281 281 281 281 281 282 281 281 281 281 280 281 280 279 279 278 278 278 278 278 277 277 277 276 276 276 276 278
267 266 267 268 269 268 269 269 270 270 270 270 277 279 279 280 282 284 283 281 281 280 279 280 280 279 280 283 284 284 282 279 278 278 278 278 279 278 277 275 272 271 272
269 270 271 271 272 271 272 273 270 269 270 270 270 272 277 279 282 283 284 282 280 279 279 279 279 280 278 279 281 284 284 285 284 280 279 279 278 280 278 275 273 272 272
271 273 273 272 272 273 273 271 271 274 277 278 277 276 276 277 282 283 283 282 280 280 279 279 278 279 279 279 279 279 280 281 282 282 282 281 281 280 278 277 275 272 272
272 272 272 273 272 273 272 271 271 273 274 276 278 278 278 279 282 283 283 281 280 280 281 280 281 280 282 284 280 278 279 279 283 285 286 285 286 286 285 276 269 275 275
273 273 273 273 272 271 272 273 274 274 276 276 277 277 277 278 281 282 282 281 280 280 281 281 282 281 283 284 281 279 277 278 279 276 278 283 285 283 286 282 276 275 275
272 273 272 272 272 272 273 273 273 272 274 272 274 274 275 276 277 280 281 280 279 279 280 280 281 284 284 285 285 281 279 280 278 278 276 277 277 277 279 280 280 279 279
270 270 269 268 271 272 267 269 270 269 272 273 274 273 275 276 277 279 280 281 281 279 279 280 280 283 283 284 284 284 284 284 282 279 277 277 276 276 278 278 278 277 279
265 264 265 266 270 271 267 268 268 272 273 274 274 274 275 277 277 280 280 281 281 279 279 280 282 283 283 283 284 284 283 282 280 278 278 279 280 280 279 275 273 273 270
263 265 267 266 267 267 271 271 268 268 271 273 274 274 274 275 276 276 278 277 279 278 278 277 279 281 282 282 278 279 279 279 280 279 279 279 279 278 279 277 275 272 269
265 266 266 268 266 267 269 268 270 270 270 266 266 271 268 272 275 277 276 274 271 274 271 266 267 269 276 275 274 276 277 277 278 278 279 278 279 279 277 275 275 273 274
265 267 267 266 265 267 266 266 273 275 276 276 276 275 270 276 278 277 276 276 276 276 261 261 266 267 268 273 269 268 272 274 273 273 273 273 274 275 274 274 276 275 274
261 264 264 266 264 263 263 263 263 267 273 275 275 276 275 275 275 277 275 275 276 272 259 258 261 262 263 265 266 270 266 267 268 267 269 269 271 271 273 272 274 275 272
260 262 261 261 261 260 261 260 259 259 259 260 269 272 274 274 275 275 275 273 260 262 257 257 258 259 260 261 261 262 263 264 264 265 265 266 267 268 268 268 269 270 271
260 260 261 260 260 260 259 258 259 260 261 261 259 267 267 273 274 274 274 265 262 260 259 260 261 261 261 260 260 258 258 259 260 259 259 260 261 263 262 262 264 266 266
258 260 260 259 258 260 262 262 260 261 262 263 263 264 258 257 255 257 258 258 261 263 262 262 262 261 261 261 261 260 259 257 258 258 260 260 262 261 262 260 259 260 261
259 259 261 259 260 262 263 262 263 261 263 263 264 264 270 262 263 259 261 262 264 264 263 262 262 262 261 260 259 258 258 260 259 259 259 259 257 259 258 259 260 261 258
257 258 258 261 261 261 262 263 262 262 263 263 264 263 271 268 265 264 264 264 265 264 265 262 262 262 263 261 260 259 259 259 258 258 259 259 257 257 256 257 258 256 256
256 256 258 261 262 262 262 263 262 262 262 263 263 263 262 262 263 263 263 263 263 263 263 261 263 262 261 261 260 262 261 261 261 258 260 258 257 259 257 259 257 254 255
256 259 262 262 262 262 263 263 263 263 262 263 263 263 263 263 262 262 262 263 263 263 261 263 263 262 261 259 259 260 261 261 254 257 257 258 257 257 257 253 254 254 253
257 260 261 262 262 262 262 262 262 262 263 263 263 263 263 263 262 263 263 263 263 262 261 260 262 261 259 260 259 259 260 262 261 259 256 253 255 255 256 254 254 253 252
258 259 261 261 261 260 260 260 260 260 261 261 262 262 262 262 263 263 263 263 263 263 262 262 261 261 261 261 260 260 260 262 260 260 258 256 256 256 253 257 255 254 252
Wind_Speed
3 3 3 2 4 4 4 3 4 3 4 3 4 5 5 4 4 4 5 6 7 6 5 5 6 5 3 3 4 4 4 4 5 3 1 2 4 3 5 3 4 5 4
2 2 1 2 2 3 3 5 4 5 4 4 5 4 4 4 4 6 6 6 7 6 6 6 6 4 5 4 3 4 4 4 3 7 2 2 4 4 4 3 4 3 4
3 2 2 2 3 4 5 5 4 4 4 5 5 5 5 6 6 6 6 7 7 7 6 6 5 4 6 4 5 4 4 4 4 3 4 3 4 2 3 3 4 4 3
4 2 2 2 3 4 4 4 4 4 4 3 6 5 5 6 6 7 7 7 7 6 6 5 5 7 6 5 4 8 6 7 6 6 6 5 4 4 1 1 3 3 5
3 2 2 2 1 1 0 1 2 3 4 5 3 4 5 6 5 7 7 7 7 6 5 5 6 11 13 11 6 7 7 6 5 6 6 3 3 1 2 2 3 3 4
3 2 1 1 2 3 3 4 4 4 4 3 6 6 6 5 12 15 11 7 6 6 6 8 11 10 14 19 20 19 11 8 8 6 4 5 4 3 3 3 2 2 3
3 1 2 1 1 2 3 4 4 4 3 4 4 5 10 9 14 15 15 7 6 7 9 9 8 8 11 10 17 22 20 22 20 7 8 7 4 4 3 2 3 3 4
3 2 2 1 1 1 1 2 2 3 5 5 5 6 7 7 16 15 15 9 10 11 9 8 9 9 8 10 9 10 12 12 14 10 12 11 9 5 5 5 6 3 3
3 2 1 1 2 3 3 3 3 1 1 3 6 6 7 8 13 14 13 10 10 12 10 10 11 11 14 18 10 11 11 11 14 21 22 22 21 20 13 3 2 3 5
3 2 0 0 1 3 4 3 2 1 3 2 4 4 5 5 10 13 11 5 7 8 9 9 14 12 16 18 11 10 11 11 8 5 5 14 17 12 17 9 5 6 4
2 2 2 2 3 3 3 3 4 3 3 3 4 4 5 5 6 12 12 6 5 6 6 5 4 12 16 18 19 9 10 9 10 8 6 6 6 6 6 7 8 9 10
3 3 3 2 2 2 2 3 3 2 3 3 3 3 4 4 6 7 7 9 9 6 6 5 5 14 17 17 13 14 17 16 7 7 6 7 6 6 7 6 8 7 7
3 3 3 3 3 2 2 3 3 2 1 3 2 1 2 0 2 5 5 6 8 5 3 7 15 15 16 13 14 16 14 7 7 7 8 8 7 7 7 4 3 3 3
1 2 2 1 2 3 3 2 1 2 1 3 2 2 1 2 0 1 2 3 5 4 6 4 9 11 12 9 5 7 5 4 5 7 8 6 4 4 7 5 4 3 2
2 3 2 1 2 1 3 2 2 2 3 3 3 2 1 1 1 5 5 2 2 4 4 3 3 3 4 2 2 5 4 3 5 5 5 4 5 5 4 3 2 2 6
2 2 0 1 2 1 1 3 8 9 10 9 11 7 3 8 10 7 9 9 9 9 3 2 4 2 2 1 1 2 3 3 2 1 1 2 3 3 3 2 4 6 7
3 2 2 2 2 2 1 1 4 5 9 10 10 11 11 10 12 12 11 11 10 7 2 2 3 2 2 2 2 2 2 2 1 2 2 2 2 2 4 3 4 5 4
4 5 3 3 3 3 3 3 2 3 4 4 7 9 12 14 15 15 13 10 2 4 3 4 4 4 3 3 3 2 2 3 2 2 2 2 2 1 2 2 2 3 4
5 4 5 5 4 3 2 2 3 4 5 5 3 9 8 14 14 15 16 4 5 5 4 4 5 5 4 4 4 3 3 3 3 2 2 2 2 2 2 2 2 4 2
5 8 5 3 2 3 4 5 5 6 6 7 7 8 2 0 2 4 3 3 5 6 6 7 6 5 5 5 5 4 4 3 3 3 4 4 4 3 3 3 3 3 3
4 4 6 4 5 6 6 7 7 5 8 8 9 7 14 6 9 6 7 7 8 8 7 7 7 7 6 5 5 5 5 5 5 5 4 4 4 3 4 3 3 2 3
3 4 3 5 4 6 7 7 7 8 9 9 9 8 20 9 7 7 8 8 8 8 7 7 7 7 7 7 6 6 6 7 5 5 5 5 4 4 4 3 3 3 3
3 3 3 5 6 7 7 7 8 9 10 10 10 9 7 8 9 10 10 9 8 8 7 7 8 8 6 6 6 8 8 8 8 5 7 5 5 5 4 4 4 3 3
3 4 7 7 7 8 8 9 8 10 10 10 10 10 10 9 9 10 9 9 8 8 6 8 8 10 7 7 6 7 8 7 4 6 7 6 6 6 5 4 4 5 4
4 7 8 8 8 8 8 8 9 9 10 10 10 10 10 9 10 10 9 8 8 8 8 6 7 8 11 12 9 10 10 14 11 8 5 5 7 8 5 4 4 3 4
7 8 8 7 8 8 8 9 9 9 9 9 10 10 10 10 10 10 9 9 8 9 9 8 8 11 10 9 11 11 12 14 12 11 7 5 6 5 4 6 7 4 4
Wind_Direction
75 66 116 150 134 132 145 185 187 165 182 193 196 207 212 203 207 224 231 237 223 223 216 216 226 211 217 207 196 202 210 214 245 281 245 331 298 288 294 287 285 289 281
108 100 161 153 137 148 183 203 185 190 198 211 215 202 201 202 199 222 225 242 239 227 220 207 221 204 223 210 195 212 210 207 221 258 266 281 245 273 267 299 290 273 269
105 140 216 207 175 198 211 199 179 193 202 212 197 204 209 215 206 223 222 240 240 230 223 209 203 210 228 217 214 217 222 221 209 225 260 269 269 258 296 299 293 283 278
130 149 205 213 209 209 205 190 184 192 193 221 219 205 210 227 218 216 216 226 233 232 219 200 200 227 216 216 224 230 226 227 218 225 235 242 222 260 162 224 313 296 304
142 153 213 204 234 203 83 189 195 204 207 197 222 250 221 220 224 223 221 219 219 205 209 224 226 234 236 232 227 226 212 224 222 233 236 219 217 265 170 219 236 280 287
138 173 167 148 212 220 216 216 210 219 217 218 236 235 244 238 243 245 230 219 201 208 227 226 233 232 242 243 243 240 225 220 228 223 237 237 233 200 193 203 200 23 325
133 127 121 124 248 232 216 210 210 211 222 222 212 216 244 248 249 247 247 231 215 222 230 234 230 224 220 229 244 246 247 247 242 234 244 236 228 201 193 199 200 188 231
82 77 78 55 331 315 318 292 261 240 252 254 235 221 228 240 252 248 244 240 245 242 235 224 224 231 218 212 224 234 241 242 243 242 242 250 244 228 199 192 199 211 280
108 98 76 342 318 326 327 288 267 262 251 257 264 259 254 259 259 254 246 242 244 249 244 236 231 232 230 238 221 229 240 244 249 245 245 250 254 254 244 135 227 195 274
93 68 42 340 0 302 287 292 283 300 274 267 277 274 268 267 269 265 254 240 245 253 254 242 234 230 230 234 232 226 237 245 250 247 250 253 258 256 252 221 176 218 227
88 41 22 15 348 292 319 341 313 310 323 327 293 279 264 254 262 266 261 252 248 257 259 261 254 258 260 257 253 232 236 243 251 249 236 235 235 240 242 229 210 215 233
29 5 13 340 310 329 14 297 273 280 296 261 245 278 259 233 236 264 270 264 255 252 252 253 252 262 264 265 265 259 260 262 257 243 234 233 229 231 238 222 219 215 225
35 338 316 314 312 313 288 270 300 269 262 281 289 276 294 252 248 308 319 291 275 267 245 260 270 272 274 273 276 275 264 239 240 241 241 243 234 224 214 210 213 215 215
3 301 289 293 308 304 290 275 254 310 337 282 294 284 272 262 177 350 315 314 335 349 335 327 301 291 266 256 257 276 269 241 244 242 242 236 228 213 215 193 181 178 165
290 278 287 256 254 284 280 267 272 269 212 212 255 269 292 265 257 295 305 283 263 296 312 351 307 275 255 225 244 255 240 230 253 246 247 247 229 215 199 175 173 183 227
301 289 36 282 310 291 262 295 303 275 251 259 270 259 243 272 277 286 295 295 300 308 19 288 282 290 292 306 305 306 331 318 283 258 273 248 228 220 207 196 209 217 233
223 279 280 269 246 263 286 291 312 313 306 277 264 259 262 261 267 272 271 282 285 304 146 264 260 270 268 282 268 266 261 274 306 329 317 298 279 255 228 226 223 223 217
234 257 250 244 240 239 233 228 220 253 274 283 283 275 264 266 269 263 264 279 334 302 199 219 238 238 241 236 246 243 271 304 300 265 264 257 282 270 270 258 229 223 237
222 231 227 226 232 232 233 269 257 256 256 260 288 276 270 269 265 267 267 233 221 225 227 239 227 229 232 228 233 239 226 237 235 244 273 287 267 205 253 254 251 255 252
230 242 250 258 258 246 232 239 240 242 253 257 260 257 245 125 270 246 242 226 227 236 225 233 236 231 226 221 225 224 233 237 233 229 238 234 240 219 222 223 224 221 235
220 218 215 211 223 237 243 236 244 234 246 250 255 249 249 224 250 237 242 234 241 240 233 228 234 233 225 218 216 216 220 229 221 220 220 224 210 215 220 210 211 226 189
224 232 227 225 224 233 242 239 239 245 250 252 259 252 262 260 250 244 243 242 241 236 232 224 231 230 229 221 217 214 221 232 226 214 221 220 212 214 204 191 209 202 184
228 242 249 253 246 252 254 250 250 251 256 258 260 261 247 244 248 246 246 246 244 238 231 220 235 238 229 221 208 215 219 229 231 195 217 213 210 208 195 199 195 197 184
233 246 259 260 253 252 255 259 255 251 254 260 259 259 257 252 251 252 249 246 243 240 224 225 227 227 230 221 218 217 227 233 197 210 206 202 207 199 190 181 178 188 178
241 260 260 261 259 260 264 261 263 265 265 265 268 268 266 258 255 257 258 251 246 243 241 226 227 226 229 232 217 216 221 229 227 217 207 196 204 195 188 184 171 167 154
253 253 255 255 253 252 253 259 261 262 264 266 267 269 269 267 264 261 259 255 252 249 244 242 237 232 232 231 231 227 226 233 233 217 203 198 204 203 182 197 186 167 158